Private Wetterstation Sandau
Wetterdaten: Jahr 2013
Datum Temp. A. Feuchte A. Luftdruck Regen Wind Richtung Taupunkt Windchill
01.01.2013 6,3 C 83 % 1005,0 hPa 2,6 l/m 7,1 km/h (2 Bft) W-SW 3,7 C 5,1 C
02.01.2013 5,4 C 86 % 1020,5 hPa 1,0 l/m 12,1 km/h (2 Bft) W-SW 3,2 C 3,0 C
03.01.2013 8,1 C 89 % 1024,0 hPa 3,1 l/m 13,0 km/h (3 Bft) W 6,4 C 5,9 C
04.01.2013 8,4 C 93 % 1025,5 hPa 11,4 l/m 14,5 km/h (3 Bft) W-NW 7,3 C 6,2 C
05.01.2013 7,5 C 93 % 1028,4 hPa 1,0 l/m 5,3 km/h (1 Bft) NW 6,3 C 6,8 C
06.01.2013 7,1 C 94 % 1024,2 hPa 2,6 l/m 2,7 km/h (1 Bft) NW 6,1 C 7,1 C
07.01.2013 5,8 C 92 % 1027,1 hPa 0,0 l/m 1,8 km/h (1 Bft) W 4,6 C 5,6 C
08.01.2013 6,9 C 94 % 1022,2 hPa 5,7 l/m 3,4 km/h (1 Bft) W 6,0 C 6,5 C
09.01.2013 6,7 C 92 % 1014,5 hPa 5,2 l/m 8,1 km/h (2 Bft) W-SW 5,5 C 5,4 C
10.01.2013 2,0 C 84 % 1008,3 hPa 2,6 l/m 14,9 km/h (3 Bft) NO -0,4 C -1,4 C
11.01.2013 -0,4 C 87 % 1015,4 hPa 0,0 l/m 6,4 km/h (2 Bft) NO -2,3 C -2,3 C
12.01.2013 -1,2 C 90 % 1020,0 hPa 0,0 l/m 3,0 km/h (1 Bft) NW -2,7 C -2,1 C
13.01.2013 -2,3 C 85 % 1021,0 hPa 0,0 l/m 5,0 km/h (1 Bft) O-SO -4,6 C -3,0 C
14.01.2013 -4,0 C 87 % 1014,8 hPa 0,0 l/m 3,7 km/h (1 Bft) SO -5,8 C -5,6 C
15.01.2013 -4,0 C 88 % 1011,0 hPa 0,0 l/m 6,5 km/h (2 Bft) SO -5,7 C -6,8 C
16.01.2013 -3,3 C 87 % 1012,5 hPa 0,0 l/m 4,1 km/h (1 Bft) O-NO -5,2 C -3,3 C
17.01.2013 -0,2 C 86 % 1017,9 hPa 0,5 l/m 4,7 km/h (1 Bft) N-NO -2,3 C -0,9 C
18.01.2013 -2,3 C 81 % 1013,3 hPa 0,0 l/m 4,8 km/h (1 Bft) O-SO -5,1 C -3,9 C
19.01.2013 -6,7 C 80 % 1005,9 hPa 0,0 l/m 3,4 km/h (1 Bft) O-NO -9,6 C -7,6 C
20.01.2013 -4,2 C 83 % 1003,8 hPa 0,0 l/m 7,5 km/h (2 Bft) O-NO -6,6 C -7,3 C
21.01.2013 -4,3 C 84 % 1005,3 hPa 0,0 l/m 6,7 km/h (2 Bft) O-NO -6,6 C -6,5 C
22.01.2013 -5,7 C 82 % 1010,3 hPa 0,0 l/m 2,0 km/h (1 Bft) O-NO -8,2 C -6,3 C
23.01.2013 -4,4 C 84 % 1011,6 hPa 0,0 l/m 0,0 km/h (0 Bft) N-NO -6,7 C -4,4 C
24.01.2013 -4,7 C 84 % 1017,3 hPa 0,0 l/m 0,9 km/h (0 Bft) O-NO -6,9 C -4,7 C
25.01.2013 -6,7 C 84 % 1022,1 hPa 0,0 l/m 0,0 km/h (0 Bft) SO -8,9 C -6,7 C
26.01.2013 -6,5 C 84 % 1013,0 hPa 0,0 l/m 7,6 km/h (2 Bft) SO -8,7 C -9,0 C
27.01.2013 0,4 C 90 % 1004,1 hPa 0,0 l/m 4,2 km/h (1 Bft) S-SW -1,1 C 0,4 C
28.01.2013 2,5 C 88 % 1011,8 hPa 1,0 l/m 5,4 km/h (1 Bft) W-SW 0,7 C 1,6 C
29.01.2013 4,9 C 92 % 1005,9 hPa 3,1 l/m 13,2 km/h (3 Bft) S-SW 3,7 C 2,0 C
30.01.2013 7,4 C 89 % 1001,9 hPa 6,2 l/m 15,1 km/h (3 Bft) W-SW 5,7 C 5,0 C
31.01.2013 6,4 C 78 % 1004,1 hPa 3,6 l/m 18,8 km/h (3 Bft) W 2,9 C 3,0 C
01.02.2013 5,1 C 86 % 997,3 hPa 3,6 l/m 5,9 km/h (2 Bft) W-SW 2,8 C 4,2 C
02.02.2013 0,2 C 86 % 1002,8 hPa 7,8 l/m 6,4 km/h (2 Bft) N-NW -1,9 C -1,3 C
03.02.2013 1,3 C 89 % 1007,8 hPa 3,1 l/m 13,2 km/h (3 Bft) W -0,3 C -2,3 C
04.02.2013 4,5 C 84 % 1002,6 hPa 5,2 l/m 9,9 km/h (2 Bft) W-SW 1,9 C 2,3 C
05.02.2013 1,8 C 87 % 995,8 hPa 2,6 l/m 13,1 km/h (3 Bft) W-SW -0,1 C -1,1 C
06.02.2013 1,5 C 83 % 999,3 hPa 1,0 l/m 9,8 km/h (2 Bft) W-SW -1,1 C -1,3 C
07.02.2013 0,7 C 88 % 1007,7 hPa 0,0 l/m 5,8 km/h (2 Bft) W-NW -1,1 C -0,6 C
08.02.2013 0,3 C 89 % 1012,6 hPa 1,6 l/m 5,6 km/h (1 Bft) NW -1,4 C -1,1 C
09.02.2013 -1,2 C 89 % 1017,9 hPa 2,6 l/m 3,5 km/h (1 Bft) N-NO -2,8 C -1,8 C
10.02.2013 -3,9 C 90 % 1016,4 hPa 0,0 l/m 3,0 km/h (1 Bft) SO -5,4 C -4,5 C
11.02.2013 -1,7 C 82 % 1012,7 hPa 1,0 l/m 7,8 km/h (2 Bft) O-SO -4,4 C -4,4 C
12.02.2013 -0,9 C 79 % 1016,1 hPa 0,0 l/m 6,2 km/h (2 Bft) NO -4,1 C -2,3 C
13.02.2013 -1,5 C 85 % 1026,4 hPa 0,0 l/m 0,3 km/h (0 Bft) N-NO -3,6 C -1,5 C
14.02.2013 -0,8 C 85 % 1022,8 hPa 0,0 l/m 10,9 km/h (2 Bft) SO -3,1 C -4,1 C
15.02.2013 0,1 C 89 % 1020,8 hPa 0,0 l/m 5,1 km/h (1 Bft) SO -1,6 C -1,3 C
16.02.2013 1,2 C 89 % 1025,2 hPa 0,0 l/m 3,6 km/h (1 Bft) O-SO -0,5 C 0,5 C
17.02.2013 1,0 C 92 % 1026,3 hPa 0,0 l/m 3,4 km/h (1 Bft) O-SO -0,2 C 1,0 C
18.02.2013 1,2 C 89 % 1020,9 hPa 0,0 l/m 5,3 km/h (1 Bft) W-SW -0,4 C -0,0 C
19.02.2013 0,5 C 88 % 1015,9 hPa 8,8 l/m 11,8 km/h (2 Bft) N-NO -1,2 C -3,0 C
20.02.2013 -1,3 C 80 % 1024,4 hPa 0,5 l/m 8,1 km/h (2 Bft) N-NO -4,3 C -4,2 C
21.02.2013 -1,4 C 79 % 1024,1 hPa 0,5 l/m 3,4 km/h (1 Bft) N-NO -4,5 C -2,0 C
22.02.2013 -3,3 C 77 % 1020,8 hPa 0,5 l/m 10,4 km/h (2 Bft) O-NO -6,8 C -7,2 C
23.02.2013 -1,4 C 85 % 1016,4 hPa 0,0 l/m 9,9 km/h (2 Bft) O-NO -3,6 C -4,6 C
24.02.2013 0,8 C 93 % 1016,9 hPa 0,0 l/m 8,5 km/h (2 Bft) O-NO -0,2 C -1,9 C
25.02.2013 1,6 C 93 % 1025,6 hPa 1,0 l/m 5,4 km/h (1 Bft) O-NO 0,5 C 0,8 C
26.02.2013 1,2 C 91 % 1033,4 hPa 0,0 l/m 9,0 km/h (2 Bft) NO -0,1 C -1,6 C
27.02.2013 2,2 C 87 % 1033,1 hPa 0,5 l/m 0,8 km/h (0 Bft) NO 0,3 C 2,2 C
28.02.2013 1,6 C 86 % 1025,9 hPa 0,0 l/m 8,6 km/h (2 Bft) W-SW -0,6 C -0,4 C
01.03.2013 2,3 C 84 % 1023,2 hPa 0,0 l/m 4,8 km/h (1 Bft) NW -0,2 C 1,3 C
02.03.2013 2,0 C 80 % 1021,6 hPa 0,0 l/m 11,2 km/h (2 Bft) W -1,3 C -0,4 C
03.03.2013 2,7 C 79 % 1021,8 hPa 0,0 l/m 4,9 km/h (1 Bft) W -0,6 C 1,7 C
04.03.2013 3,1 C 76 % 1022,2 hPa 0,0 l/m 4,9 km/h (1 Bft) S-SO -1,0 C 1,9 C
05.03.2013 4,0 C 70 % 1012,0 hPa 0,0 l/m 5,7 km/h (1 Bft) SO -1,6 C 3,4 C
06.03.2013 4,6 C 75 % 1006,7 hPa 0,0 l/m 1,8 km/h (1 Bft) O-SO 0,4 C 4,6 C
07.03.2013 5,0 C 69 % 1007,0 hPa 0,0 l/m 5,0 km/h (1 Bft) O-NO -0,4 C 4,3 C
08.03.2013 1,2 C 80 % 1009,0 hPa 0,5 l/m 7,5 km/h (2 Bft) SO -1,9 C -1,1 C
09.03.2013 0,2 C 85 % 1005,9 hPa 0,5 l/m 14,6 km/h (3 Bft) O-SO -2,0 C -4,0 C
10.03.2013 -2,8 C 86 % 1004,1 hPa 0,0 l/m 7,1 km/h (2 Bft) O-NO -4,9 C -4,6 C
11.03.2013 -2,8 C 77 % 1008,9 hPa 0,5 l/m 3,1 km/h (1 Bft) O-NO -6,4 C -3,2 C
12.03.2013 -2,5 C 72 % 1006,5 hPa 0,5 l/m 7,3 km/h (2 Bft) O-NO -7,1 C -4,8 C
13.03.2013 -4,5 C 71 % 1007,0 hPa 0,0 l/m 1,3 km/h (1 Bft) W-SW -9,3 C -4,8 C
14.03.2013 -1,8 C 79 % 1011,7 hPa 0,0 l/m 1,3 km/h (1 Bft) O-SO -5,1 C -1,8 C
15.03.2013 -2,7 C 76 % 1017,3 hPa 0,0 l/m 1,8 km/h (1 Bft) W-NW -6,5 C -2,7 C
16.03.2013 -1,6 C 65 % 1016,6 hPa 0,5 l/m 6,4 km/h (2 Bft) SO -7,6 C -3,3 C
17.03.2013 0,5 C 62 % 1007,9 hPa 1,0 l/m 11,6 km/h (2 Bft) SO -6,0 C -3,0 C
18.03.2013 -0,8 C 84 % 998,8 hPa 0,0 l/m 10,8 km/h (2 Bft) SO -3,2 C -4,1 C
19.03.2013 -0,7 C 87 % 999,1 hPa 0,0 l/m 2,8 km/h (1 Bft) N-NO -2,7 C -0,7 C
20.03.2013 0,7 C 80 % 1008,6 hPa 0,5 l/m 3,9 km/h (1 Bft) NW -2,6 C 0,2 C
21.03.2013 -0,7 C 84 % 1019,2 hPa 0,0 l/m 4,3 km/h (1 Bft) N-NO -3,1 C -1,3 C
22.03.2013 -1,8 C 77 % 1024,6 hPa 0,5 l/m 5,3 km/h (1 Bft) O-NO -5,4 C -3,6 C
23.03.2013 -5,6 C 57 % 1028,4 hPa 0,5 l/m 9,0 km/h (2 Bft) O-NO -12,9 C -9,6 C
24.03.2013 -3,8 C 64 % 1026,3 hPa 0,0 l/m 6,8 km/h (2 Bft) O-NO -9,6 C -6,1 C
25.03.2013 -2,3 C 61 % 1022,3 hPa 0,5 l/m 9,3 km/h (2 Bft) O-NO -8,8 C -4,6 C
26.03.2013 -1,5 C 65 % 1018,9 hPa 0,5 l/m 9,6 km/h (2 Bft) O-NO -7,4 C -4,7 C
27.03.2013 -0,0 C 61 % 1017,2 hPa 0,0 l/m 9,1 km/h (2 Bft) O-NO -6,8 C -2,9 C
28.03.2013 0,4 C 77 % 1012,9 hPa 0,0 l/m 9,4 km/h (2 Bft) O-SO -3,4 C -2,6 C
29.03.2013 0,9 C 82 % 1007,1 hPa 0,0 l/m 3,5 km/h (1 Bft) N-NO -1,8 C 0,9 C
30.03.2013 1,0 C 79 % 1009,4 hPa 0,0 l/m 0,3 km/h (0 Bft) N-NO -2,2 C 1,0 C
31.03.2013 0,8 C 78 % 1012,8 hPa 0,0 l/m 6,6 km/h (2 Bft) N-NO -2,8 C -0,5 C
01.04.2013 0,1 C 60 % 1013,1 hPa 0,0 l/m 3,3 km/h (1 Bft) N-NO -7,3 C -0,4 C
02.04.2013 0,9 C 65 % 1018,2 hPa 0,0 l/m 3,3 km/h (1 Bft) O-NO -5,2 C 0,6 C
03.04.2013 0,8 C 67 % 1020,6 hPa 0,0 l/m 3,9 km/h (1 Bft) O-NO -4,8 C -0,0 C
04.04.2013 2,1 C 75 % 1015,8 hPa 0,0 l/m 6,6 km/h (2 Bft) O-NO -2,0 C 0,9 C
05.04.2013 2,2 C 83 % 1013,3 hPa 0,0 l/m 5,5 km/h (1 Bft) NO -0,4 C 1,0 C
06.04.2013 3,1 C 65 % 1020,1 hPa 0,0 l/m 3,2 km/h (1 Bft) N-NO -3,1 C 2,3 C
07.04.2013 4,6 C 64 % 1019,8 hPa 0,0 l/m 1,5 km/h (1 Bft) W-NW -2,0 C 4,4 C
08.04.2013 4,5 C 68 % 1011,4 hPa 0,0 l/m 5,7 km/h (1 Bft) O-NO -1,3 C 3,5 C
09.04.2013 4,9 C 72 % 1006,3 hPa 0,0 l/m 16,7 km/h (3 Bft) O-SO 0,1 C 1,5 C
10.04.2013 6,9 C 78 % 1006,9 hPa 0,5 l/m 3,8 km/h (1 Bft) SO 3,3 C 6,4 C
11.04.2013 7,7 C 91 % 1001,6 hPa 0,5 l/m 2,0 km/h (1 Bft) SO 6,3 C 7,6 C
12.04.2013 10,3 C 78 % 1002,5 hPa 0,0 l/m 4,6 km/h (1 Bft) W-SW 6,4 C 10,3 C
13.04.2013 8,8 C 75 % 1017,1 hPa 0,0 l/m 9,0 km/h (2 Bft) W-SW 4,5 C 8,4 C
14.04.2013 12,9 C 70 % 1025,1 hPa 0,0 l/m 5,9 km/h (2 Bft) SO 7,2 C 12,6 C
15.04.2013 17,5 C 60 % 1019,6 hPa 0,0 l/m 9,6 km/h (2 Bft) SO 9,3 C 17,5 C
16.04.2013 16,4 C 70 % 1019,1 hPa 0,0 l/m 2,1 km/h (1 Bft) SW 10,7 C 16,4 C
17.04.2013 15,6 C 70 % 1020,8 hPa 0,0 l/m 1,8 km/h (1 Bft) W-SW 9,9 C 15,6 C
18.04.2013 15,9 C 50 % 1014,6 hPa 0,0 l/m 12,0 km/h (2 Bft) W-NW 4,8 C 15,9 C
19.04.2013 11,6 C 59 % 1022,8 hPa 0,0 l/m 7,2 km/h (2 Bft) W-SW 3,3 C 11,6 C
20.04.2013 8,9 C 56 % 1030,0 hPa 0,0 l/m 5,9 km/h (2 Bft) N-NO 0,3 C 8,4 C
21.04.2013 11,7 C 53 % 1020,4 hPa 0,0 l/m 5,9 km/h (2 Bft) O-SO 1,8 C 11,4 C
22.04.2013 10,9 C 65 % 1016,2 hPa 0,0 l/m 1,6 km/h (1 Bft) W 4,4 C 10,9 C
23.04.2013 12,8 C 66 % 1019,2 hPa 0,0 l/m 14,9 km/h (3 Bft) W 6,5 C 12,5 C
24.04.2013 15,0 C 58 % 1023,8 hPa 0,0 l/m 4,6 km/h (1 Bft) W-SW 6,4 C 15,0 C
25.04.2013 17,1 C 65 % 1021,8 hPa 0,0 l/m 2,0 km/h (1 Bft) W 10,4 C 17,1 C
26.04.2013 14,9 C 72 % 1006,4 hPa 3,6 l/m 7,7 km/h (2 Bft) N-NO 9,1 C 14,0 C
27.04.2013 7,5 C 77 % 1010,7 hPa 3,6 l/m 6,9 km/h (2 Bft) N-NO 3,6 C 6,4 C
28.04.2013 10,2 C 61 % 1016,4 hPa 0,0 l/m 3,7 km/h (1 Bft) N-NO 2,7 C 9,9 C
29.04.2013 11,5 C 60 % 1016,8 hPa 0,0 l/m 9,0 km/h (2 Bft) W-SW 3,6 C 11,4 C
30.04.2013 12,2 C 54 % 1023,6 hPa 0,0 l/m 3,4 km/h (1 Bft) N-NO 2,5 C 12,2 C
01.05.2013 13,3 C 55 % 1024,8 hPa 0,0 l/m 3,6 km/h (1 Bft) O-NO 4,1 C 13,3 C
02.05.2013 13,1 C 52 % 1022,0 hPa 0,0 l/m 9,7 km/h (2 Bft) O-NO 3,1 C 12,8 C
03.05.2013 13,0 C 43 % 1018,4 hPa 0,0 l/m 3,6 km/h (1 Bft) O-NO 0,5 C 13,0 C
04.05.2013 15,5 C 53 % 1017,5 hPa 0,0 l/m 4,1 km/h (1 Bft) S-SW 5,3 C 15,5 C
05.05.2013 17,2 C 56 % 1024,0 hPa 0,0 l/m 4,2 km/h (1 Bft) O-SO 8,1 C 17,2 C
06.05.2013 18,3 C 53 % 1021,6 hPa 0,0 l/m 7,6 km/h (2 Bft) O-SO 7,8 C 18,3 C
07.05.2013 18,6 C 71 % 1015,9 hPa 14,5 l/m 6,2 km/h (2 Bft) O-NO 12,9 C 18,6 C
08.05.2013 19,1 C 71 % 1012,8 hPa 0,0 l/m 4,0 km/h (1 Bft) S-SO 13,3 C 19,1 C
09.05.2013 16,9 C 78 % 1012,5 hPa 22,3 l/m 3,4 km/h (1 Bft) S-SO 12,7 C 16,9 C
11.05.2013 18,7 C 72 % 1012,7 hPa 22,3 l/m 6,8 km/h (2 Bft) SW 13,1 C 18,7 C
12.05.2013 10,6 C 79 % 1013,8 hPa 2,6 l/m 1,9 km/h (1 Bft) W 7,1 C 10,6 C
13.05.2013 12,9 C 75 % 1012,5 hPa 1,0 l/m 10,8 km/h (2 Bft) S-SW 8,3 C 12,9 C
14.05.2013 13,9 C 68 % 1010,4 hPa 2,1 l/m 10,4 km/h (2 Bft) W-SW 7,8 C 13,9 C
15.05.2013 19,1 C 56 % 1003,0 hPa 0,0 l/m 6,9 km/h (2 Bft) SO 9,7 C 19,1 C
16.05.2013 20,4 C 58 % 999,0 hPa 0,0 l/m 9,1 km/h (2 Bft) SO 11,3 C 20,4 C
17.05.2013 22,0 C 61 % 999,6 hPa 0,0 l/m 5,0 km/h (1 Bft) SO 13,6 C 22,0 C
18.05.2013 12,8 C 88 % 1008,0 hPa 13,5 l/m 12,7 km/h (3 Bft) W-SW 10,7 C 12,8 C
19.05.2013 15,0 C 77 % 1008,8 hPa 0,0 l/m 3,1 km/h (1 Bft) W-SW 10,9 C 15,0 C
20.05.2013 14,6 C 80 % 1008,5 hPa 0,0 l/m 4,8 km/h (1 Bft) SW 11,1 C 14,6 C
21.05.2013 16,2 C 66 % 1008,3 hPa 0,5 l/m 6,0 km/h (2 Bft) W-SW 9,8 C 16,2 C
22.05.2013 9,8 C 80 % 1005,1 hPa 8,3 l/m 15,0 km/h (3 Bft) W 6,4 C 8,1 C
23.05.2013 12,1 C 57 % 1007,6 hPa 0,0 l/m 4,2 km/h (1 Bft) W-SW 3,5 C 11,9 C
24.05.2013 11,6 C 71 % 1011,3 hPa 0,0 l/m 4,6 km/h (1 Bft) NW 6,2 C 11,6 C
25.05.2013 9,2 C 88 % 1008,6 hPa 15,0 l/m 12,0 km/h (2 Bft) NW 7,3 C 8,0 C
26.05.2013 12,0 C 92 % 1001,5 hPa 9,8 l/m 6,2 km/h (2 Bft) N 10,7 C 12,0 C
27.05.2013 14,4 C 72 % 1007,7 hPa 0,5 l/m 3,8 km/h (1 Bft) O-NO 8,9 C 14,4 C
28.05.2013 13,8 C 83 % 1002,8 hPa 0,0 l/m 4,8 km/h (1 Bft) NW 10,9 C 13,8 C
29.05.2013 14,7 C 82 % 1001,0 hPa 0,5 l/m 3,5 km/h (1 Bft) SO 11,6 C 14,7 C
30.05.2013 17,6 C 75 % 1004,9 hPa 0,5 l/m 6,9 km/h (2 Bft) N-NO 12,8 C 17,6 C
31.05.2013 18,5 C 76 % 1003,8 hPa 5,2 l/m 9,3 km/h (2 Bft) N-NO 14,2 C 18,5 C
01.06.2013 17,2 C 81 % 1009,2 hPa 0,5 l/m 15,0 km/h (3 Bft) N-NO 13,7 C 17,2 C
02.06.2013 13,4 C 69 % 1018,3 hPa 0,0 l/m 7,6 km/h (2 Bft) N-NO 7,7 C 13,4 C
03.06.2013 14,6 C 59 % 1022,4 hPa 0,0 l/m 6,4 km/h (2 Bft) N-NO 6,1 C 14,5 C
04.06.2013 16,0 C 66 % 1021,0 hPa 0,0 l/m 5,3 km/h (1 Bft) O-NO 9,7 C 16,0 C
05.06.2013 19,1 C 48 % 1021,5 hPa 0,0 l/m 1,3 km/h (1 Bft) O-SO 7,3 C 19,1 C
06.06.2013 19,8 C 48 % 1022,4 hPa 0,0 l/m 3,3 km/h (1 Bft) O-NO 7,8 C 19,8 C
07.06.2013 21,7 C 49 % 1020,8 hPa 0,0 l/m 3,4 km/h (1 Bft) N-NO 10,3 C 21,7 C
08.06.2013 21,5 C 49 % 1016,3 hPa 0,0 l/m 2,0 km/h (1 Bft) N-NO 9,8 C 21,5 C
09.06.2013 19,6 C 57 % 1011,0 hPa 0,5 l/m 6,8 km/h (2 Bft) N-NO 10,7 C 19,6 C
10.06.2013 20,0 C 52 % 1011,5 hPa 0,0 l/m 1,9 km/h (1 Bft) N-NO 9,6 C 20,0 C
11.06.2013 20,1 C 57 % 1016,6 hPa 0,0 l/m 1,0 km/h (0 Bft) N-NO 11,0 C 20,1 C
12.06.2013 22,5 C 54 % 1017,9 hPa 0,0 l/m 4,3 km/h (1 Bft) S-SW 12,4 C 22,5 C
13.06.2013 22,9 C 62 % 1012,7 hPa 0,0 l/m 11,7 km/h (2 Bft) S-SW 15,1 C 22,9 C
14.06.2013 17,7 C 64 % 1018,3 hPa 8,8 l/m 8,4 km/h (2 Bft) W-SW 10,6 C 17,7 C
15.06.2013 19,0 C 66 % 1013,2 hPa 0,5 l/m 6,5 km/h (2 Bft) S-SO 12,1 C 19,0 C
16.06.2013 18,7 C 53 % 1015,6 hPa 0,0 l/m 12,5 km/h (3 Bft) W-SW 8,7 C 18,7 C
17.06.2013 22,1 C 50 % 1017,3 hPa 0,0 l/m 4,4 km/h (1 Bft) O-NO 11,0 C 22,1 C
18.06.2013 25,4 C 55 % 1017,1 hPa 0,0 l/m 2,3 km/h (1 Bft) O-NO 15,3 C 25,4 C
19.06.2013 28,0 C 59 % 1013,7 hPa 0,0 l/m 6,2 km/h (2 Bft) O-SO 19,1 C 28,0 C
20.06.2013 25,3 C 71 % 1011,7 hPa 20,2 l/m 5,6 km/h (1 Bft) N 19,3 C 25,3 C
21.06.2013 23,1 C 59 % 1011,5 hPa 5,2 l/m 9,2 km/h (2 Bft) W-SW 14,4 C 23,1 C
22.06.2013 22,6 C 56 % 1013,2 hPa 0,0 l/m 6,5 km/h (2 Bft) W-SW 13,0 C 22,6 C
23.06.2013 20,4 C 58 % 1011,9 hPa 0,0 l/m 11,5 km/h (2 Bft) W-SW 11,5 C 20,4 C
24.06.2013 18,3 C 67 % 1018,1 hPa 0,0 l/m 7,0 km/h (2 Bft) W-SW 11,7 C 18,3 C
25.06.2013 14,2 C 82 % 1021,2 hPa 5,2 l/m 12,1 km/h (2 Bft) NW 11,1 C 14,2 C
26.06.2013 13,8 C 68 % 1022,3 hPa 2,6 l/m 13,9 km/h (3 Bft) W-NW 7,8 C 13,8 C
27.06.2013 16,5 C 64 % 1021,3 hPa 0,0 l/m 6,8 km/h (2 Bft) W-SW 9,3 C 16,5 C
28.06.2013 16,0 C 67 % 1018,8 hPa 0,0 l/m 7,6 km/h (2 Bft) W-SW 9,5 C 16,0 C
29.06.2013 14,4 C 78 % 1016,3 hPa 3,6 l/m 7,3 km/h (2 Bft) W-SW 10,6 C 14,4 C
30.06.2013 15,0 C 71 % 1019,5 hPa 0,0 l/m 9,8 km/h (2 Bft) W-SW 9,3 C 15,0 C
01.07.2013 21,0 C 61 % 1015,3 hPa 1,6 l/m 5,6 km/h (1 Bft) W-SW 12,9 C 21,0 C
02.07.2013 20,0 C 60 % 1014,6 hPa 4,1 l/m 5,4 km/h (1 Bft) W-NW 11,5 C 20,0 C
03.07.2013 23,0 C 66 % 1010,8 hPa 0,5 l/m 2,5 km/h (1 Bft) W-SW 16,1 C 23,0 C
04.07.2013 21,4 C 74 % 1020,3 hPa 3,1 l/m 2,2 km/h (1 Bft) W-SW 16,5 C 21,4 C
05.07.2013 21,1 C 70 % 1027,4 hPa 0,0 l/m 5,1 km/h (1 Bft) N 15,2 C 21,1 C
06.07.2013 21,3 C 55 % 1030,6 hPa 0,0 l/m 2,1 km/h (1 Bft) N-NO 11,7 C 21,3 C
07.07.2013 23,0 C 52 % 1031,1 hPa 0,0 l/m 3,5 km/h (1 Bft) NO 12,3 C 23,0 C
08.07.2013 24,3 C 54 % 1029,7 hPa 0,0 l/m 1,8 km/h (1 Bft) NO 13,9 C 24,3 C
09.07.2013 24,6 C 45 % 1023,3 hPa 0,0 l/m 1,0 km/h (0 Bft) N 11,1 C 24,6 C
10.07.2013 19,6 C 57 % 1017,7 hPa 0,0 l/m 8,7 km/h (2 Bft) N 10,7 C 19,6 C
11.07.2013 18,7 C 57 % 1018,5 hPa 0,0 l/m 3,4 km/h (1 Bft) N-NO 9,9 C 18,7 C
12.07.2013 19,8 C 61 % 1020,6 hPa 0,0 l/m 4,5 km/h (1 Bft) NW 11,8 C 19,8 C
13.07.2013 20,6 C 56 % 1020,8 hPa 0,0 l/m 3,5 km/h (1 Bft) NW 11,0 C 20,6 C
14.07.2013 17,5 C 71 % 1020,7 hPa 0,0 l/m 7,4 km/h (2 Bft) NW 12,0 C 17,5 C
15.07.2013 20,3 C 57 % 1021,8 hPa 0,0 l/m 2,7 km/h (1 Bft) NW 11,0 C 20,3 C
16.07.2013 22,9 C 56 % 1023,0 hPa 0,0 l/m 2,3 km/h (1 Bft) N-NO 13,3 C 22,9 C
17.07.2013 23,4 C 56 % 1023,8 hPa 0,0 l/m 2,9 km/h (1 Bft) N-NO 13,7 C 23,4 C
18.07.2013 25,0 C 51 % 1023,3 hPa 0,0 l/m 2,6 km/h (1 Bft) N-NO 13,6 C 25,0 C
19.07.2013 23,3 C 59 % 1020,2 hPa 0,0 l/m 7,4 km/h (2 Bft) NW 14,7 C 23,3 C
20.07.2013 23,0 C 44 % 1021,7 hPa 0,0 l/m 3,8 km/h (1 Bft) NO 9,1 C 23,0 C
21.07.2013 26,5 C 39 % 1021,6 hPa 0,0 l/m 0,7 km/h (0 Bft) W-SW 11,1 C 26,5 C
22.07.2013 27,9 C 38 % 1017,1 hPa 0,0 l/m 4,0 km/h (1 Bft) NO 11,8 C 27,9 C
23.07.2013 24,9 C 48 % 1015,3 hPa 0,0 l/m 4,5 km/h (1 Bft) O-SO 12,4 C 24,9 C
24.07.2013 25,5 C 40 % 1014,5 hPa 0,0 l/m 2,7 km/h (1 Bft) O-SO 10,3 C 25,5 C
25.07.2013 25,1 C 61 % 1015,2 hPa 1,0 l/m 1,0 km/h (0 Bft) S-SW 16,6 C 25,1 C
26.07.2013 27,9 C 54 % 1013,7 hPa 0,0 l/m 6,9 km/h (2 Bft) NW 17,1 C 27,9 C
27.07.2013 29,2 C 54 % 1009,3 hPa 0,0 l/m 1,8 km/h (1 Bft) SO 18,2 C 29,2 C
28.07.2013 26,8 C 58 % 1011,4 hPa 4,7 l/m 6,4 km/h (2 Bft) W-SW 17,4 C 26,8 C
29.07.2013 21,4 C 85 % 1013,0 hPa 9,8 l/m 0,3 km/h (0 Bft) N-NO 18,7 C 21,4 C
30.07.2013 21,1 C 65 % 1015,1 hPa 3,6 l/m 4,5 km/h (1 Bft) W 14,1 C 21,1 C
31.07.2013 21,0 C 67 % 1015,8 hPa 0,5 l/m 5,3 km/h (1 Bft) W-SW 14,3 C 21,0 C
01.08.2013 25,4 C 57 % 1016,7 hPa 0,0 l/m 4,6 km/h (1 Bft) W-SW 15,6 C 25,4 C
02.08.2013 29,4 C 48 % 1013,4 hPa 0,0 l/m 3,7 km/h (1 Bft) SO 16,4 C 29,4 C
03.08.2013 26,8 C 56 % 1016,8 hPa 0,0 l/m 2,2 km/h (1 Bft) W-NW 16,7 C 26,8 C
04.08.2013 22,0 C 63 % 1021,5 hPa 0,0 l/m 4,1 km/h (1 Bft) O-NO 14,3 C 22,0 C
05.08.2013 24,8 C 59 % 1017,9 hPa 0,0 l/m 3,3 km/h (1 Bft) O-SO 15,9 C 24,8 C
06.08.2013 25,8 C 56 % 1013,7 hPa 7,8 l/m 6,3 km/h (2 Bft) O-SO 16,0 C 25,8 C
07.08.2013 22,4 C 75 % 1012,7 hPa 0,0 l/m 3,0 km/h (1 Bft) O-SO 17,7 C 22,4 C
08.08.2013 20,1 C 76 % 1015,4 hPa 2,6 l/m 5,5 km/h (1 Bft) W-SW 15,5 C 20,1 C
09.08.2013 19,6 C 60 % 1019,9 hPa 0,0 l/m 2,2 km/h (1 Bft) W-SW 11,2 C 19,6 C
10.08.2013 20,5 C 60 % 1017,1 hPa 6,7 l/m 3,8 km/h (1 Bft) N-NO 12,2 C 20,5 C
11.08.2013 18,0 C 59 % 1016,4 hPa 0,0 l/m 7,4 km/h (2 Bft) W 9,7 C 18,0 C
12.08.2013 17,4 C 72 % 1013,8 hPa 1,0 l/m 7,0 km/h (2 Bft) W-SW 12,1 C 17,4 C
13.08.2013 16,1 C 69 % 1015,5 hPa 2,6 l/m 5,2 km/h (1 Bft) W 10,2 C 16,1 C
14.08.2013 16,1 C 68 % 1021,3 hPa 1,6 l/m 10,9 km/h (2 Bft) W 10,0 C 16,1 C
15.08.2013 20,1 C 57 % 1021,8 hPa 0,0 l/m 2,1 km/h (1 Bft) W-SW 10,9 C 20,1 C
16.08.2013 22,9 C 49 % 1018,0 hPa 0,0 l/m 2,1 km/h (1 Bft) S-SW 10,9 C 22,9 C
17.08.2013 21,0 C 62 % 1014,3 hPa 0,0 l/m 3,3 km/h (1 Bft) SO 13,1 C 21,0 C
18.08.2013 20,6 C 72 % 1012,6 hPa 0,0 l/m 3,4 km/h (1 Bft) S-SW 15,2 C 20,6 C
19.08.2013 16,8 C 86 % 1015,4 hPa 26,4 l/m 6,8 km/h (2 Bft) NO 14,4 C 16,8 C
20.08.2013 18,2 C 68 % 1026,5 hPa 1,6 l/m 3,4 km/h (1 Bft) NW 11,9 C 18,2 C
21.08.2013 18,8 C 62 % 1025,8 hPa 0,0 l/m 0,6 km/h (0 Bft) W-SW 10,8 C 18,8 C
22.08.2013 19,1 C 59 % 1021,8 hPa 0,0 l/m 0,7 km/h (0 Bft) O-NO 10,3 C 19,1 C
23.08.2013 19,1 C 64 % 1020,9 hPa 0,0 l/m 4,0 km/h (1 Bft) O-SO 11,8 C 19,1 C
24.08.2013 18,4 C 60 % 1016,4 hPa 0,0 l/m 5,0 km/h (1 Bft) O-NO 10,1 C 18,4 C
25.08.2013 19,5 C 52 % 1015,9 hPa 0,0 l/m 7,8 km/h (2 Bft) O-NO 8,7 C 19,5 C
26.08.2013 18,0 C 52 % 1019,2 hPa 0,0 l/m 6,0 km/h (2 Bft) O-NO 7,6 C 18,0 C
27.08.2013 17,9 C 60 % 1017,8 hPa 0,0 l/m 4,3 km/h (1 Bft) O-NO 9,7 C 17,9 C
28.08.2013 17,9 C 68 % 1019,1 hPa 0,0 l/m 1,3 km/h (1 Bft) NO 11,3 C 17,9 C
29.08.2013 19,3 C 62 % 1021,1 hPa 0,0 l/m 1,8 km/h (1 Bft) N 11,3 C 19,3 C
30.08.2013 19,5 C 60 % 1018,5 hPa 0,0 l/m 3,9 km/h (1 Bft) W-NW 11,0 C 19,5 C
31.08.2013 17,5 C 75 % 1018,2 hPa 1,0 l/m 7,8 km/h (2 Bft) W 12,8 C 17,5 C
01.09.2013 15,9 C 62 % 1021,5 hPa 0,0 l/m 5,2 km/h (1 Bft) W 8,5 C 15,9 C
02.09.2013 15,6 C 86 % 1016,9 hPa 4,1 l/m 16,0 km/h (3 Bft) W 13,2 C 15,6 C
03.09.2013 17,9 C 86 % 1024,5 hPa 3,6 l/m 7,2 km/h (2 Bft) W-NW 15,4 C 17,9 C
04.09.2013 17,7 C 82 % 1024,6 hPa 0,0 l/m 0,0 km/h (0 Bft) N 14,4 C 17,7 C
05.09.2013 18,3 C 71 % 1018,7 hPa 0,0 l/m 2,7 km/h (1 Bft) SO 12,5 C 18,3 C
06.09.2013 19,8 C 61 % 1014,4 hPa 0,0 l/m 7,7 km/h (2 Bft) SO 11,6 C 19,8 C
07.09.2013 20,0 C 54 % 1018,6 hPa 0,5 l/m 8,2 km/h (2 Bft) SO 10,1 C 20,0 C
08.09.2013 17,9 C 66 % 1018,1 hPa 1,0 l/m 8,7 km/h (2 Bft) SO 11,3 C 17,9 C
09.09.2013 12,7 C 87 % 1015,2 hPa 51,8 l/m 5,7 km/h (1 Bft) NW 10,5 C 12,7 C
10.09.2013 13,4 C 76 % 1011,3 hPa 1,6 l/m 7,7 km/h (2 Bft) SO 9,1 C 13,4 C
11.09.2013 11,9 C 88 % 1010,5 hPa 2,1 l/m 2,3 km/h (1 Bft) SO 10,0 C 11,9 C
12.09.2013 14,4 C 82 % 1014,9 hPa 0,5 l/m 0,3 km/h (0 Bft) O-NO 11,2 C 14,4 C
13.09.2013 14,5 C 81 % 1017,9 hPa 0,0 l/m 2,0 km/h (1 Bft) W-NW 11,0 C 14,5 C
14.09.2013 16,6 C 77 % 1012,2 hPa 0,0 l/m 1,8 km/h (1 Bft) S-SW 12,1 C 16,6 C
15.09.2013 14,2 C 75 % 1008,1 hPa 1,6 l/m 2,0 km/h (1 Bft) W-SW 9,8 C 14,2 C
16.09.2013 12,6 C 79 % 999,8 hPa 2,6 l/m 8,3 km/h (2 Bft) W-SW 9,0 C 12,6 C
17.09.2013 10,5 C 73 % 1001,6 hPa 0,0 l/m 7,5 km/h (2 Bft) W-SW 5,6 C 10,5 C
18.09.2013 10,5 C 84 % 998,3 hPa 8,8 l/m 6,7 km/h (2 Bft) SO 7,8 C 10,4 C
19.09.2013 11,7 C 79 % 1009,6 hPa 0,0 l/m 6,6 km/h (2 Bft) W 8,1 C 11,1 C
20.09.2013 13,6 C 85 % 1013,5 hPa 5,2 l/m 4,0 km/h (1 Bft) S-SW 11,1 C 13,6 C
21.09.2013 14,1 C 80 % 1025,2 hPa 0,5 l/m 2,8 km/h (1 Bft) W-NW 10,6 C 14,1 C
22.09.2013 14,3 C 85 % 1023,3 hPa 0,0 l/m 17,3 km/h (3 Bft) W 11,8 C 14,3 C
23.09.2013 16,6 C 75 % 1019,4 hPa 0,0 l/m 8,9 km/h (2 Bft) W-NW 12,1 C 16,6 C
24.09.2013 13,6 C 91 % 1015,5 hPa 11,9 l/m 1,5 km/h (1 Bft) W-NW 12,0 C 13,6 C
25.09.2013 10,2 C 86 % 1013,1 hPa 4,1 l/m 2,3 km/h (1 Bft) O-SO 7,9 C 10,2 C
26.09.2013 9,3 C 81 % 1016,1 hPa 1,6 l/m 3,5 km/h (1 Bft) O-NO 6,2 C 9,2 C
27.09.2013 10,1 C 82 % 1018,7 hPa 0,0 l/m 1,5 km/h (1 Bft) W 6,9 C 10,1 C
28.09.2013 9,2 C 79 % 1017,8 hPa 0,5 l/m 1,0 km/h (0 Bft) O-NO 5,6 C 9,2 C
29.09.2013 8,6 C 77 % 1018,5 hPa 0,0 l/m 4,3 km/h (1 Bft) O 4,5 C 8,6 C
30.09.2013 8,2 C 73 % 1017,1 hPa 0,0 l/m 6,7 km/h (2 Bft) O-NO 3,2 C 7,9 C
01.10.2013 7,9 C 72 % 1020,1 hPa 0,0 l/m 2,3 km/h (1 Bft) O-NO 2,8 C 7,9 C
02.10.2013 7,4 C 72 % 1026,9 hPa 0,0 l/m 10,1 km/h (2 Bft) SO 2,3 C 6,5 C
03.10.2013 6,9 C 66 % 1027,3 hPa 0,0 l/m 12,4 km/h (3 Bft) SO 0,6 C 5,1 C
04.10.2013 10,3 C 56 % 1021,1 hPa 0,0 l/m 10,0 km/h (2 Bft) SO 1,5 C 9,2 C
05.10.2013 9,6 C 84 % 1018,8 hPa 14,0 l/m 0,9 km/h (0 Bft) SO 6,9 C 9,6 C
06.10.2013 13,6 C 87 % 1025,2 hPa 0,0 l/m 0,3 km/h (0 Bft) NW 11,3 C 13,6 C
07.10.2013 14,3 C 80 % 1027,4 hPa 0,0 l/m 0,0 km/h (0 Bft) W 10,8 C 14,3 C
08.10.2013 14,4 C 78 % 1024,3 hPa 0,0 l/m 1,7 km/h (1 Bft) S 10,3 C 14,4 C
09.10.2013 14,2 C 87 % 1012,8 hPa 3,6 l/m 5,9 km/h (2 Bft) SW 12,0 C 14,2 C
10.10.2013 9,4 C 88 % 1008,7 hPa 4,1 l/m 3,0 km/h (1 Bft) N 7,6 C 9,3 C
11.10.2013 13,8 C 85 % 1016,5 hPa 1,0 l/m 11,4 km/h (2 Bft) O-NO 11,2 C 13,8 C
12.10.2013 12,2 C 92 % 1017,6 hPa 32,1 l/m 7,2 km/h (2 Bft) O-NO 10,9 C 12,2 C
13.10.2013 7,9 C 85 % 1020,3 hPa 0,5 l/m 2,5 km/h (1 Bft) S 5,4 C 7,9 C
14.10.2013 9,5 C 85 % 1017,5 hPa 0,0 l/m 3,4 km/h (1 Bft) SO 7,0 C 9,3 C
15.10.2013 9,7 C 91 % 1007,5 hPa 12,4 l/m 1,7 km/h (1 Bft) SO 8,2 C 9,7 C
16.10.2013 8,4 C 89 % 1013,0 hPa 0,0 l/m 4,1 km/h (1 Bft) W-NW 6,6 C 8,4 C
17.10.2013 11,9 C 84 % 1006,1 hPa 4,7 l/m 17,0 km/h (3 Bft) W-SW 9,2 C 11,7 C
18.10.2013 7,9 C 79 % 1019,0 hPa 0,5 l/m 2,1 km/h (1 Bft) NW 4,3 C 7,7 C
19.10.2013 8,9 C 83 % 1013,8 hPa 0,0 l/m 3,2 km/h (1 Bft) SO 6,1 C 8,9 C
20.10.2013 14,2 C 88 % 1012,3 hPa 0,0 l/m 1,5 km/h (1 Bft) S-SW 12,1 C 14,2 C
21.10.2013 13,8 C 83 % 1014,4 hPa 0,0 l/m 7,6 km/h (2 Bft) W-SW 10,8 C 13,8 C
22.10.2013 15,0 C 83 % 1009,8 hPa 0,0 l/m 2,7 km/h (1 Bft) SO 12,0 C 15,0 C
23.10.2013 16,7 C 76 % 1006,7 hPa 0,0 l/m 8,7 km/h (2 Bft) S-SW 12,3 C 16,7 C
24.10.2013 10,8 C 81 % 1018,0 hPa 0,0 l/m 5,9 km/h (2 Bft) W-SW 7,5 C 10,8 C
25.10.2013 11,5 C 88 % 1015,2 hPa 0,0 l/m 6,6 km/h (2 Bft) SO 9,5 C 11,5 C
26.10.2013 15,8 C 86 % 1010,9 hPa 2,1 l/m 5,6 km/h (1 Bft) S-SW 13,4 C 15,8 C
27.10.2013 14,1 C 80 % 1003,3 hPa 4,1 l/m 9,1 km/h (2 Bft) SW 10,6 C 14,1 C
28.10.2013 14,4 C 72 % 998,5 hPa 0,5 l/m 14,0 km/h (3 Bft) S-SW 9,3 C 14,4 C
29.10.2013 10,5 C 73 % 1011,1 hPa 0,0 l/m 12,7 km/h (3 Bft) W-SW 5,7 C 9,1 C
30.10.2013 8,7 C 79 % 1022,2 hPa 0,0 l/m 9,8 km/h (2 Bft) W-SW 5,1 C 7,4 C
31.10.2013 6,6 C 80 % 1022,1 hPa 0,0 l/m 3,0 km/h (1 Bft) S-SW 3,3 C 6,6 C
01.11.2013 8,7 C 84 % 1013,8 hPa 0,0 l/m 7,8 km/h (2 Bft) S-SW 6,1 C 8,0 C
02.11.2013 9,9 C 91 % 1002,1 hPa 3,6 l/m 5,3 km/h (1 Bft) S-SW 8,4 C 9,9 C
03.11.2013 8,3 C 82 % 1000,0 hPa 4,7 l/m 7,7 km/h (2 Bft) W-SW 5,4 C 7,5 C
04.11.2013 8,7 C 83 % 988,0 hPa 5,2 l/m 16,0 km/h (3 Bft) S-SW 5,9 C 7,0 C
05.11.2013 7,1 C 81 % 994,7 hPa 0,0 l/m 6,5 km/h (2 Bft) W-SW 4,1 C 6,2 C
06.11.2013 8,1 C 86 % 999,0 hPa 6,7 l/m 12,9 km/h (3 Bft) W-SW 5,9 C 6,4 C
07.11.2013 11,1 C 88 % 1005,1 hPa 8,8 l/m 10,2 km/h (2 Bft) W-SW 9,2 C 11,1 C
08.11.2013 9,1 C 89 % 1008,8 hPa 2,1 l/m 5,4 km/h (1 Bft) SO 7,3 C 8,8 C
09.11.2013 8,0 C 78 % 1006,3 hPa 0,5 l/m 10,4 km/h (2 Bft) W-SW 4,2 C 6,7 C
10.11.2013 6,2 C 84 % 1008,2 hPa 2,1 l/m 4,1 km/h (1 Bft) W-SW 3,6 C 5,9 C
11.11.2013 5,0 C 86 % 1029,4 hPa 0,0 l/m 4,7 km/h (1 Bft) NW 2,7 C 4,1 C
12.11.2013 5,8 C 84 % 1024,8 hPa 0,5 l/m 5,0 km/h (1 Bft) S-SW 3,2 C 5,0 C
13.11.2013 5,7 C 87 % 1028,3 hPa 0,0 l/m 3,6 km/h (1 Bft) W 3,6 C 5,1 C
14.11.2013 3,7 C 89 % 1021,3 hPa 0,0 l/m 1,6 km/h (1 Bft) S-SO 2,0 C 3,7 C
15.11.2013 2,8 C 89 % 1030,1 hPa 0,0 l/m 1,4 km/h (1 Bft) O-SO 1,2 C 2,8 C
16.11.2013 3,2 C 92 % 1028,9 hPa 0,0 l/m 6,9 km/h (2 Bft) W-SW 2,0 C 1,7 C
17.11.2013 6,6 C 92 % 1024,7 hPa 0,5 l/m 0,9 km/h (0 Bft) W-SW 5,3 C 6,6 C
18.11.2013 5,6 C 90 % 1010,2 hPa 0,0 l/m 4,8 km/h (1 Bft) SO 4,0 C 4,9 C
19.11.2013 5,8 C 88 % 1006,8 hPa 2,6 l/m 2,0 km/h (1 Bft) S-SW 3,9 C 5,8 C
20.11.2013 4,4 C 92 % 1003,0 hPa 16,6 l/m 3,8 km/h (1 Bft) N-NO 3,2 C 3,5 C
21.11.2013 1,6 C 93 % 1006,2 hPa 0,0 l/m 1,1 km/h (1 Bft) NO 0,5 C 1,6 C
22.11.2013 4,3 C 92 % 1012,2 hPa 6,2 l/m 1,9 km/h (1 Bft) O-NO 3,1 C 4,0 C
23.11.2013 6,7 C 91 % 1017,3 hPa 0,5 l/m 0,0 km/h (0 Bft) NO 5,3 C 6,7 C
Min-Datum 26.01.13 22.07.13 04.11.13 129 Tage 04.01.13 - 24.03.13 26.01.13
Min-Zeit 08:21 16:06 17:16 - 10:06 - 04:51 08:41
Minimum -12,1 C 23 % 982,6 hPa - 0,0 km/h (0 Bft) - -15,5 C -18,4 C
Max-Datum 02.08.13 30.01.13 27.02.13 09.09.13 27.10.13 - 20.06.13 02.08.13
Max-Zeit 16:06 03:51 10:41 05:06 16:26 - 20:16 16:06
Maximum 38,6 C 96 % 1034,7 hPa 51,8 l/m 65,9 km/h
SW (8 Bft)
- 21,7 C 38,6 C
Durchschnitt 11,0 C 73 % 1015,3 hPa #593,1 l/m 5,8 km/h (2 Bft) W-SW 5,9 C 10,5 C

Durchschnitt Minimum Temp.6,6 C
Durchschnitt Maximum Temp.15,6 C
(c) by David Heller